Meteopurmerend
purmerend
Purmerend - Baaienwijk



My webcam  My webcam


Onweer radar Meer informatie blitzortung!


Regen radar Meer informatie rain snow radar


Bezoek onze andere website:

CandyAppleRed WebdesignWebdesign Purmerend Candy Apple Red

MeteopurmerendBlog

Template documentation
and downloads



We konden geen weer-waarchuwingen ophalen. Ga rechtstreeks naar de Meteoalarm site : www.meteoalarm.eu en controleer daar .

15 daagse weersverwachting Sundbyberg (SE)

  • Overzicht
  • Per uur
  • 15 dagen
  • Extra
  • Vergelijk
  • Kaarten
  • Dagkaart
  • Meer »
  • Info
  • Statistieken
  • Directe link
    Temp 6h Neerslag Wind  
 04:30     21:21    Daglengte: 16:51 Vandaag
14:00
23°
 
6
20:00
19°
1.2 mm
5
 04:32     21:18    Daglengte: 16:46 Morgen
02:00
15°
 
6
08:00
15°
 
6
14:00
18°
9.5 mm
4
20:00
19°
1.4 mm
4
 04:35     21:16    Daglengte: 16:41 Zaterdag 31 Jul
02:00
16°
 
2
08:00
17°
 
2
14:00
20°
5.7 mm
3
warningclass
20:00
19°
8.4 mm
3
 04:37     21:14    Daglengte: 16:37 Zondag 01 Aug
02:00
16°
8.2 mm
2
08:00
17°
16.6 mm
4
Locatie info
Region: Stockholms län
Latitude: 59.3622°N
Longitude: 17.9713°E
24 masl
Postcode: 172 31
Temp/Neerslag /Baro Onweer/Dauwpunt
    Temp Baro 1h Neerslag Dauwpunt Wind UV Bewolking  
 04:30     21:21    Daglengte: 16:51 Vandaag
12:00
23°
1000.2 hPa   12.8°
4
Windvlaag: 6.6 m/s
9%
13:00
24°
999.5 hPa
19%
11.5°
5
Windvlaag: 9.1 m/s
12%
14:00
23°
998.9 hPa
20%
13.1°
6
Windvlaag: 9 m/s
16%
15:00
23°
998.4 hPa
55%
15.6°
7
Windvlaag: 10.4 m/s
27%
16:00
22°
997.9 hPa 0.7 mm
71%
14.0°
6
Windvlaag: 10.6 m/s
32%
17:00
21°
997.8 hPa 0.5 mm
76%
11.3°
7
Windvlaag: 8.5 m/s
30%
18:00
21°
997.4 hPa
77%
13.3°
6
Windvlaag: 8.1 m/s
13%
19:00
20°
997.0 hPa
29%
13.1°
5
Windvlaag: 5.2 m/s
22%
20:00
19°
996.8 hPa
78%
13.7°
5
Windvlaag: 5.3 m/s
9%
21:00
17°
996.9 hPa
67%
13.4°
5
Windvlaag: 5.9 m/s
0%
22:00
17°
996.8 hPa
14%
13.0°
5
Windvlaag: 6.2 m/s
3%
23:00
17°
996.6 hPa
14%
11.5°
5
Windvlaag: 6.6 m/s
8%
 04:32     21:18    Daglengte: 16:46 Morgen
00:00
16°
996.2 hPa
14%
10.4°
5
Windvlaag: 6.9 m/s
12%
01:00
16°
995.7 hPa
14%
10.1°
6
Windvlaag: 7 m/s
9%
02:00
15°
995.2 hPa
14%
10.1°
6
Windvlaag: 7.6 m/s
16%
03:00
15°
994.6 hPa
14%
10.4°
6
Windvlaag: 7.6 m/s
8%
04:00
15°
993.9 hPa
14%
10.7°
6
Windvlaag: 7.5 m/s
17%
05:00
15°
993.4 hPa
14%
10.8°
6
Windvlaag: 7.6 m/s
29%
06:00
15°
992.9 hPa
14%
12.2°
6
Windvlaag: 7.9 m/s
27%
07:00
15°
992.4 hPa
14%
13.1°
6
Windvlaag: 8.5 m/s
61%
08:00
15°
991.9 hPa
67%
13.3°
6
Windvlaag: 8.6 m/s
72%
09:00
16°
991.4 hPa
82%
13.3°
6
Windvlaag: 9.1 m/s
51%
10:00
16°
990.8 hPa 1.1 mm
82%
13.7°
6
Windvlaag: 10.5 m/s
86%
11:00
15°
990.5 hPa 2.6 mm
82%
13.5°
5
Windvlaag: 10.1 m/s
82%
12:00
16°
990.0 hPa 2.3 mm
82%
13.7°
5
Windvlaag: 11.4 m/s
77% warningclass
13:00
17°
989.4 hPa 1.9 mm
82%
13.8°
5
Windvlaag: 10.9 m/s
86%
14:00
18°
989.0 hPa 1.6 mm
80%
12.1°
4
Windvlaag: 9.2 m/s
83%
15:00
18°
988.9 hPa 1.4 mm
80%
11.3°
4
Windvlaag: 6.2 m/s
40%
16:00
20°
989.2 hPa
67%
11.9°
4
Windvlaag: -1 m/s
18%
17:00
19°
989.9 hPa
18%
14.9°
5
Windvlaag: -3.3 m/s
11%
18:00
19°
990.7 hPa
14%
14.4°
5
Windvlaag: -3.5 m/s
14%
19:00
19°
991.4 hPa
14%
14.3°
4
Windvlaag: -2.3 m/s
9%
20:00
19°
992.0 hPa
14%
14.5°
4
Windvlaag: -1 m/s
7%
21:00
18°
992.6 hPa
14%
14.2°
3
Windvlaag: -0.3 m/s
7%
22:00
18°
993.3 hPa
14%
14.7°
3
Windvlaag: -0.5 m/s
8%
23:00
17°
994.0 hPa
14%
15.3°
2
Windvlaag: -0.1 m/s
8%
 04:35     21:16    Daglengte: 16:41 Zaterdag 31 Jul
00:00
17°
994.5 hPa
14%
15.5°
2
Windvlaag: 1.9 m/s
15%
01:00
17°
995.0 hPa
14%
15.9°
3
Windvlaag: 1.2 m/s
13%
02:00
16°
995.3 hPa
14%
15.8°
2
Windvlaag: 1.8 m/s
17%
03:00
16°
995.6 hPa
14%
15.4°
2
Windvlaag: 2.2 m/s
21%
04:00
16°
995.8 hPa
14%
15.4°
2
Windvlaag: 1.9 m/s
35%
05:00
16°
996.1 hPa
21%
16.0°
3
Windvlaag: 1.4 m/s
77%
06:00
16°
996.3 hPa
21%
15.4°
2
Windvlaag: 1.2 m/s
89%
07:00
17°
996.4 hPa
21%
14.8°
2
Windvlaag: 1.6 m/s
78%
08:00
17°
996.8 hPa
21%
14.8°
2
Windvlaag: 3.4 m/s
80%
09:00
18°
997.0 hPa
21%
15.0°
3
Windvlaag: 3.7 m/s
83%
10:00
18°
997.2 hPa
23%
14.8°
3
Windvlaag: 3.6 m/s
79%
11:00
19°
997.5 hPa
39%
14.7°
3
Windvlaag: 3.8 m/s
84%
12:00
20°
997.5 hPa
97%
14.6°
3
Windvlaag: 4.1 m/s
97%
13:00
20°
997.3 hPa 2.3 mm
100%
15.4°
3
Windvlaag: 4.6 m/s
87%
14:00
20°
997.2 hPa 3.4 mm
100%
14.0°
3
Windvlaag: 4.8 m/s
80% warningclass
15:00
21°
996.9 hPa 2.6 mm
95%
13.1°
3
Windvlaag: 4.8 m/s
53%
16:00
22°
996.5 hPa
100%
13.7°
3
Windvlaag: 5.4 m/s
50%
17:00
21°
996.4 hPa 2.6 mm
100%
13.7°
5
Windvlaag: 9 m/s
94% warningclass
18:00
19°
996.4 hPa 1.5 mm
100%
16.0°
6
Windvlaag: 10 m/s
84% warningclass
19:00
19°
996.2 hPa 1.7 mm
100%
12.6°
4
Windvlaag: 9.1 m/s
65%
20:00
19°
995.9 hPa
94%
13.0°
3
Windvlaag: 6.3 m/s
73%
21:00
18°
995.8 hPa
90%
14.1°
3
Windvlaag: 4.8 m/s
75%
22:00
17°
995.3 hPa 2.5 mm
98%
15.1°
2
Windvlaag: 4.1 m/s
59% warningclass
23:00
17°
995.1 hPa 2.7 mm
82%
14.1°
2
Windvlaag: 3.7 m/s
62%
 04:37     21:14    Daglengte: 16:37 Zondag 01 Aug
00:00
16°
995.0 hPa 3.0 mm
84%
14.1°
2
Windvlaag: 2.8 m/s
89%
01:00
16°
994.9 hPa
81%
14.2°
2
Windvlaag: 2.5 m/s
68%
02:00
16°
994.5 hPa
79%
13.8°
2
Windvlaag: 2.9 m/s
86%
03:00
16°
993.9 hPa
78%
13.8°
2
Windvlaag: 6.5 m/s
80%
04:00
16°
993.9 hPa 3.1 mm
91%
14.3°
3
Windvlaag: 6.1 m/s
100%
05:00
16°
994.1 hPa 3.2 mm
95%
14.9°
3
Windvlaag: 6.1 m/s
100%
06:00
16°
994.3 hPa 3.4 mm
97%
15.3°
3
Windvlaag: 5.6 m/s
100%
07:00
16°
994.8 hPa 3.5 mm
98%
15.2°
3
Windvlaag: 6.8 m/s
100%
08:00
17°
995.1 hPa 3.4 mm
91%
14.7°
4
Windvlaag: 6.2 m/s
89%
09:00
16°
993.6 hPa 9.6 mm
100%
14.2°
4
Windvlaag: 6.5 m/s
100%
10:00
18°
994.2 hPa 9.8 mm
100%
14.3°
4
Windvlaag: 6.2 m/s
97%
11:00
18°
994.7 hPa 10.0 mm
100%
14.3°
3
Windvlaag: 4.6 m/s
94%
Temp/Neerslag /Baro Onweer/Dauwpunt
    Temp Baro Neerslag Dauwpunt Wind Bewolking  
 04:30     21:21    Daglengte: 16:51 Vandaag
14:00
23°
998.9 hPa   13.1°
6
16%
17:00
21°
997.8 hPa 1.2 mm 11.3°
7
30%
20:00
19°
996.8 hPa   13.7°
5
9%
23:00
17°
996.6 hPa   11.5°
5
8%
 04:32     21:18    Daglengte: 16:46 Morgen
02:00
15°
995.2 hPa   10.1°
6
16%
05:00
15°
993.4 hPa   10.8°
6
29%
08:00
15°
991.9 hPa   13.3°
6
72%
11:00
15°
990.5 hPa 3.7 mm 13.5°
5
82%
14:00
18°
989.0 hPa 5.8 mm 12.1°
4
83%
17:00
19°
989.9 hPa 1.4 mm 14.9°
5
11%
20:00
19°
992.0 hPa   14.5°
4
7%
23:00
17°
994.0 hPa   15.3°
2
8%
 04:35     21:16    Daglengte: 16:41 Zaterdag 31 Jul
02:00
16°
995.3 hPa   15.8°
2
17%
05:00
16°
996.1 hPa   16.0°
3
77%
08:00
17°
996.8 hPa   14.8°
2
80%
11:00
19°
997.5 hPa   14.7°
3
84%
14:00
20°
997.2 hPa 5.7 mm 14.0°
3
80% warningclass
17:00
21°
996.4 hPa 5.2 mm 13.7°
5
94% warningclass
20:00
19°
995.9 hPa 3.2 mm 13.0°
3
73%
23:00
17°
995.1 hPa 5.2 mm 14.1°
2
62%
 04:37     21:14    Daglengte: 16:37 Zondag 01 Aug
02:00
16°
994.5 hPa 3.0 mm 13.8°
2
86%
05:00
16°
994.1 hPa 6.3 mm 14.9°
3
100%
08:00
17°
995.1 hPa 10.2 mm 14.7°
4
89%
11:00
18°
994.7 hPa 29.4 mm 14.3°
3
94%
14:00
21°
995.5 hPa 30.0 mm 12.0°
3
93%
17:00
19°
1000.7 hPa 15.6 mm 9.3°
4
1%
20:00
17°
1001.7 hPa 15.6 mm 9.0°
2
0%
23:00
12°
1003.7 hPa 15.6 mm 6.8°
2
0%
 04:39     21:11    Daglengte: 16:32 Maandag 02 Aug
02:00
11°
1004.8 hPa 15.6 mm 7.4°
1
0%
05:00
10°
Voelt als: 9.2°
1005.7 hPa 15.6 mm 6.9°
2
0%
08:00
14°
1006.4 hPa 15.6 mm 6.5°
2
0%
11:00
18°
1006.9 hPa 15.6 mm 5.1°
3
0%
14:00
20°
1007.1 hPa 15.6 mm 4.9°
3
0%
17:00
20°
1007.4 hPa 15.6 mm 5.5°
2
0%
20:00
16°
1008.0 hPa 15.6 mm 8.3°
2
0%
23:00
15°
1008.9 hPa 15.6 mm 9.4°
2
1%
 04:41     21:09    Daglengte: 16:28 Dinsdag 03 Aug
02:00
13°
1009.4 hPa 16.2 mm 10.4°
1
1%
05:00
13°
1009.9 hPa 16.8 mm 10.4°
1
1%
08:00
15°
1010.4 hPa 16.8 mm 11.2°
1
1%
11:00
18°
1010.8 hPa 17.2 mm 10.3°
1
1%
14:00
19°
1010.6 hPa 18.7 mm 14.0°
1
1%
17:00
19°
1010.3 hPa 20.9 mm 14.3°
2
1%
20:00
16°
1010.5 hPa 22.6 mm 13.4°
2
1%
23:00
14°
1011.0 hPa 24.0 mm 12.4°
2
1%
 04:44     21:06    Daglengte: 16:22 Woensdag 04 Aug
02:00
14°
1010.7 hPa 24.0 mm 11.9°
2
1%
05:00
13°
1010.4 hPa 24.5 mm 12.2°
2
1%
08:00
17°
1010.9 hPa 24.5 mm 13.8°
2
1%
11:00
21°
1011.1 hPa 24.5 mm 10.9°
2
0%
14:00
22°
1011.2 hPa 24.7 mm 9.5°
1
0%
17:00
19°
1012.0 hPa 25.5 mm 11.0°
1
1%
20:00
18°
1012.5 hPa 25.7 mm 12.5°
1
0%
23:00
15°
1013.4 hPa 25.7 mm 11.9°
1
0%
 04:46     21:04    Daglengte: 16:18 Donderdag 05 Aug
02:00
14°
1013.6 hPa 25.7 mm 12.1°
1
0%
05:00
14°
1013.8 hPa 25.7 mm 11.9°
1
1%
08:00
18°
1014.0 hPa 25.7 mm 12.3°
1
1%
11:00
21°
1014.1 hPa   11.0°
2
1%
14:00
22°
1013.4 hPa 51.6 mm 11.2°
2
1%
20:00
19°
1013.3 hPa 51.7 mm 11.8°
1
1%
 04:48     21:01    Daglengte: 16:13 Vrijdag 06 Aug
02:00
15°
1014.1 hPa 51.9 mm 11.4°
1
1%
08:00
18°
1014.2 hPa 51.9 mm 11.7°
2
1%
14:00
22°
1014.0 hPa 51.9 mm 11.7°
1
0%
20:00
19°
1014.1 hPa 51.9 mm 12.6°
2
1%
 04:50     20:59    Daglengte: 16:09 Zaterdag 07 Aug
02:00
17°
1015.0 hPa 51.9 mm 12.0°
1
1%
08:00
18°
1015.4 hPa 51.9 mm 12.2°
0
1%
14:00
24°
1015.5 hPa 51.9 mm 11.2°
1
1%
20:00
19°
1015.5 hPa 51.9 mm 12.2°
2
1%
 04:53     20:56    Daglengte: 16:03 Zondag 08 Aug
02:00
15°
1015.7 hPa 51.9 mm 10.6°
1
1%
08:00
17°
1007.9 hPa 0.7 mm 12.8°
0
63%
14:00
21°
1008.4 hPa 1.5 mm 13.8°
1
68%
20:00
18°
1008.9 hPa 1.5 mm 14.0°
1
75%
 04:55     20:53    Daglengte: 15:58 Maandag 09 Aug
02:00
16°
1009.7 hPa 1.5 mm 13.0°
1
66%
08:00
17°
1009.7 hPa 1.4 mm 13.3°
1
62%
14:00
22°
1010.1 hPa 0.7 mm 13.8°
2
56%
20:00
19°
1010.2 hPa 1.0 mm 13.8°
1
61%
 04:57     20:51    Daglengte: 15:54 Dinsdag 10 Aug
02:00
15°
1011.2 hPa 0.6 mm 12.9°
1
58%
08:00
17°
1011.5 hPa 0.7 mm 13.2°
2
66%
14:00
21°
1011.9 hPa 0.5 mm 14.0°
1
60%
20:00
19°
1011.6 hPa 0.8 mm 13.5°
1
66%
 05:00     20:48    Daglengte: 15:48 Woensdag 11 Aug
02:00
15°
1012.3 hPa 0.3 mm 12.4°
1
60%
08:00
17°
1012.6 hPa 0.6 mm 12.9°
1
62%
14:00
22°
1013.0 hPa 1.2 mm 13.6°
1
63%
20:00
19°
1012.6 hPa 0.4 mm 13.3°
1
57%
 05:02     20:45    Daglengte: 15:43 Donderdag 12 Aug
02:00
15°
1013.3 hPa 0.5 mm 12.0°
2
40%
08:00
17°
1013.4 hPa 0.3 mm 12.4°
1
45%
14:00
22°
1013.3 hPa 0.6 mm 12.8°
1
46%
20:00
19°
1012.9 hPa 0.6 mm 13.3°
1
47%
 05:04     20:43    Daglengte: 15:39 Vrijdag 13 Aug
02:00
15°
1013.1 hPa 0.2 mm 12.3°
1
42%
08:00
17°
1013.1 hPa 0.1 mm 12.4°
1
43%
  CAPE Lifted Index Hail Supercell Tornado SRH 3km CL BTM PRES CL TOP PRES Swiss DWD icon SMHI TS
 04:30     21:21    Daglengte: 16:51 Vandaag
12:00 164 J/kg 0.4 K 0 % 0 % 0 % 0 m²/s² 0 0 3.1 2
13:00 210 J/kg 0.5 K 0 % 0 % 0 % 0 m²/s² 0 0 3.59 2
14:00 330 J/kg -0.2 K 0 % 0 % 0 % 0 m²/s² 0 0 2.26 2
15:00 425 J/kg -1.0 K 0 % 0 % 0 % 0 m²/s² 0 0 1.13 2
16:00 524 J/kg -1.6 K 0 % 0 % 0 % 0 m²/s² 0 0 0.56 80
17:00 489 J/kg -1.6 K 0 % 0 % 0 % 0 m²/s² 0 0 -0.73 2
18:00 427 J/kg -1.4 K 0 % 0 % 0 % 0 m²/s² 0 0 0.64 2
19:00 273 J/kg -0.6 K 0 % 0 % 0 % 0 m²/s² 0 0 0.18 3
20:00 355 J/kg -1.8 K 0 % 0 % 0 % 0 m²/s² 0 0 0.54 2
21:00 233 J/kg -1.5 K 0 % 0 % 0 % 0 m²/s² 0 0 0.39 1
22:00 96 J/kg -0.5 K 0 % 0 % 0 % 0 m²/s² 0 0 1.3 1
23:00 225 J/kg -1.7 K 0 % 0 % 0 % 0 m²/s² 0 0 -0.86 1
 04:32     21:18    Daglengte: 16:46 Morgen
00:00 110 J/kg -0.4 K 0 % 0 % 0 % 0 m²/s² 0 0 1.01 2
01:00 85 J/kg -0.3 K 0 % 0 % 0 % 0 m²/s² 0 0 0.36 0
02:00 51 J/kg -1.4 K 0 % 0 % 0 % 0 m²/s² 0 0 -0.17 1
03:00 19 J/kg -0.9 K 0 % 0 % 0 % 0 m²/s² 0 0 1.14 1
04:00 0 J/kg -0.2 K 0 % 0 % 0 % 0 m²/s² 0 0 1.99 3
05:00 8 J/kg -0.7 K 0 % 0 % 0 % 0 m²/s² 0 0 2.48 3
06:00 132 J/kg -1.0 K 0 % 0 % 0 % 0 m²/s² 0 0 1.13 3
07:00 112 J/kg -0.2 K 0 % 0 % 0 % 0 m²/s² 0 0 1.21 3
08:00 62 J/kg 0.3 K 0 % 0 % 0 % 0 m²/s² 0 0 0.81 3
09:00 162 J/kg -0.3 K 0 % 0 % 0 % 0 m²/s² 0 0 0 3
10:00 164 J/kg -0.4 K 0 % 0 % 0 % 0 m²/s² 0 0 -0.01 80
11:00 310 J/kg -1.5 K 0 % 0 % 0 % 0 m²/s² 0 0 -1.17 80
12:00 447 J/kg -2.0 K 0 % 0 % 0 % 0 m²/s² 0 0 -0.5 95
13:00 640 J/kg -3.2 K 0 % 0 % 0 % 0 m²/s² 0 0 -1.67 3
14:00 537 J/kg -2.6 K 0 % 0 % 0 % 0 m²/s² 0 0 -1.07 80
15:00 239 J/kg -0.6 K 0 % 0 % 0 % 0 m²/s² 0 0 2.04 80
16:00 229 J/kg 0.0 K 0 % 0 % 0 % 0 m²/s² 0 0 3.06 2
17:00 148 J/kg 1.1 K 0 % 0 % 0 % 0 m²/s² 0 0 5 2
18:00 75 J/kg 2.6 K 0 % 0 % 0 % 0 m²/s² 0 0 6.53 1
19:00 93 J/kg 2.1 K 0 % 0 % 0 % 0 m²/s² 0 0 4.74 2
20:00 68 J/kg 0.9 K 0 % 0 % 0 % 0 m²/s² 0 0 2.73 1
21:00 64 J/kg 0.0 K 0 % 0 % 0 % 0 m²/s² 0 0 2.49 1
22:00 277 J/kg -1.1 K 0 % 0 % 0 % 0 m²/s² 0 0 0.79 0
23:00 335 J/kg -1.4 K 0 % 0 % 0 % 0 m²/s² 0 0 0.37 1
 04:35     21:16    Daglengte: 16:41 Zaterdag 31 Jul
00:00 151 J/kg -1.2 K 0 % 0 % 0 % 0 m²/s² 0 0 1.53 2
01:00 355 J/kg -2.1 K 0 % 0 % 0 % 0 m²/s² 0 0 0.87 2
02:00 512 J/kg -2.6 K 0 % 0 % 0 % 0 m²/s² 0 0 -0.53 2
03:00 521 J/kg -2.8 K 0 % 0 % 0 % 0 m²/s² 0 0 -0.16 2
04:00 451 J/kg -2.9 K 0 % 0 % 0 % 0 m²/s² 0 0 0.13 3
05:00 328 J/kg -2.1 K 0 % 0 % 0 % 0 m²/s² 0 0 1.02 3
06:00 145 J/kg -1.2 K 0 % 0 % 0 % 0 m²/s² 0 0 1.2 3
07:00 1 J/kg -0.1 K 0 % 0 % 0 % 0 m²/s² 0 0 1.64 2
08:00 0 J/kg -0.3 K 0 % 0 % 0 % 0 m²/s² 0 0 1.11 3
09:00 5 J/kg -0.4 K 0 % 0 % 0 % 0 m²/s² 0 0 0.83 3
10:00 54 J/kg -0.7 K 0 % 0 % 0 % 0 m²/s² 0 0 0.86 3
11:00 221 J/kg -1.4 K 0 % 0 % 0 % 0 m²/s² 0 0 1 3
12:00 448 J/kg -2.2 K 0 % 0 % 0 % 0 m²/s² 0 0 -0.07 3
13:00 649 J/kg -2.8 K 0 % 0 % 0 % 0 m²/s² 0 0 -0.79 80
14:00 532 J/kg -2.6 K 0 % 0 % 0 % 0 m²/s² 0 0 -0.65 95
15:00 557 J/kg -2.7 K 0 % 0 % 0 % 0 m²/s² 0 0 -1.14 80
16:00 806 J/kg -3.6 K 0 % 0 % 0 % 0 m²/s² 0 0 -2.61 2
17:00 935 J/kg -4.2 K 0 % 0 % 0 % 0 m²/s² 0 0 -3.18 3
18:00 848 J/kg -3.5 K 0 % 0 % 0 % 0 m²/s² 0 0 -2.57 80
19:00 7 J/kg 0.4 K 0 % 0 % 0 % 0 m²/s² 0 0 2.02 80
20:00 0 J/kg -1.1 K 0 % 0 % 0 % 0 m²/s² 0 0 -0.11 3
21:00 291 J/kg -2.0 K 0 % 0 % 0 % 0 m²/s² 0 0 -1.49 3
22:00 545 J/kg -3.0 K 0 % 0 % 0 % 0 m²/s² 0 0 -2.16 80
23:00 27 J/kg 1.1 K 0 % 0 % 0 % 0 m²/s² 0 0 1.49 3
 04:37     21:14    Daglengte: 16:37 Zondag 01 Aug
00:00 0 J/kg -0.4 K 0 % 0 % 0 % 0 m²/s² 0 0 0.2 3
01:00 142 J/kg -1.1 K 0 % 0 % 0 % 0 m²/s² 0 0 -0.02 3
02:00 62 J/kg -1.7 K 0 % 0 % 0 % 0 m²/s² 0 0 -0.32 3
03:00 163 J/kg -1.1 K 0 % 0 % 0 % 0 m²/s² 0 0 -0.23 3
04:00 256 J/kg -1.4 K 0 % 0 % 0 % 0 m²/s² 0 0 -0.02 80
05:00 331 J/kg -1.9 K 0 % 0 % 0 % 0 m²/s² 0 0 -0.97 80
06:00 478 J/kg -2.1 K 0 % 0 % 0 % 0 m²/s² 0 0 -1.32 80
07:00 435 J/kg -1.7 K 0 % 0 % 0 % 0 m²/s² 0 0 -0.95 80
08:00 272 J/kg -0.7 K 0 % 0 % 0 % 0 m²/s² 0 0 -0.04 80
09:00 217 J/kg -1.0 K 0 % 0 % 0 % 0 m²/s² 0 0 -0.13
10:00 382 J/kg -1.3 K 0 % 0 % 0 % 0 m²/s² 0 0 0.5
11:00 409 J/kg -1.7 K 0 % 0 % 0 % 0 m²/s² 0 0 0.28
Temp Baro Wind Neerslag
  EWN Forecast EWN WRFDA DWD ICON FMI HIRLAM MET Norway GFS
 04:30     21:21    Daglengte: 16:51 Vandaag
14:00 23.5° 998.9 hPa 5.9 m/s 0.0 mm 23.4° 998.8 hPa 5.9 m/s 0.0 mm 23.3° 998.8 hPa 3.9 m/s -2.0 mm 24.1° 998.9 hPa 7.0 m/s 0.0 mm 24.8° 998.5 hPa 5.1 m/s
17:00 20.9° 997.8 hPa 6.9 m/s 1.2 mm 21.2° 997.8 hPa 7.0 m/s 0.5 mm 20.8° 998.3 hPa 4.9 m/s 0.7 mm 22.6° 997.1 hPa 7.7 m/s 0.0 mm 22.7° 997.5 hPa 4.2 m/s
20:00 19.0° 996.8 hPa 4.8 m/s 0.0 mm 19.7° 996.7 hPa 6.1 m/s 1.6 mm 19.0° 997.4 hPa 4.2 m/s 0.1 mm 19.0° 996.0 hPa 7.1 m/s 0.0 mm 19.2° 997.4 hPa 5.5 m/s
23:00 16.5° 996.6 hPa 5.5 m/s 0.0 mm 16.4° 996.8 hPa 5.1 m/s 1.9 mm 16.6° 996.7 hPa 2.8 m/s 0.0 mm 16.9° 996.1 hPa 7.3 m/s 0.0 mm 14.9° 997.3 hPa 3.7 m/s
 04:32     21:18    Daglengte: 16:46 Morgen
02:00 15.2° 995.2 hPa 5.8 m/s 0.0 mm 13.7° 995.3 hPa 5.7 m/s 1.9 mm 14.9° 995.4 hPa 3.9 m/s 0.0 mm 16.2° 994.5 hPa 6.7 m/s 0.0 mm 13.5° 996.3 hPa 3.8 m/s
05:00 14.5° 993.4 hPa 5.8 m/s 0.0 mm 12.6° 993.4 hPa 4.1 m/s 1.9 mm 13.7° 993.7 hPa 3.5 m/s 0.0 mm 15.7° 992.1 hPa 6.9 m/s 0.0 mm 11.9° 994.9 hPa 3.4 m/s
08:00 15.4° 991.9 hPa 6.2 m/s 0.0 mm 14.1° 992.0 hPa 5.5 m/s 2.8 mm 15.6° 992.1 hPa 4.3 m/s 0.0 mm 15.0° 990.6 hPa 6.8 m/s 0.0 mm 13.9° 993.3 hPa 3.9 m/s
11:00 15.3° 990.5 hPa 4.7 m/s 3.7 mm 14.8° 990.6 hPa 5.5 m/s 10.9 mm 15.9° 991.2 hPa 3.5 m/s 1.7 mm 15.2° 988.0 hPa 4.4 m/s 0.0 mm 14.5° 991.7 hPa 4.8 m/s
14:00 17.8° 989.0 hPa 4.1 m/s 5.8 mm 19.4° 989.7 hPa 6.2 m/s 17.3 mm 17.9° 990.5 hPa 2.9 m/s 1.3 mm 19.1° 987.7 hPa 3.9 m/s 0.0 mm 18.1° 991.8 hPa 3.7 m/s
17:00 19.3° 989.9 hPa 4.8 m/s 1.4 mm 20.4° 990.4 hPa 5.2 m/s 17.7 mm 20.6° 990.3 hPa 2.9 m/s 0.3 mm 19.2° 988.4 hPa 5.9 m/s 0.0 mm 19.9° 992.0 hPa 3.8 m/s
20:00 18.7° 992.0 hPa 3.8 m/s 0.0 mm 19.5° 991.8 hPa 4.6 m/s 17.7 mm 20.5° 992.1 hPa 2.6 m/s 0.0 mm 17.9° 990.9 hPa 4.5 m/s 0.0 mm 19.1° 992.8 hPa 3.6 m/s
23:00 17.2° 994.0 hPa 2.5 m/s 0.0 mm 17.8° 993.2 hPa 4.6 m/s 17.7 mm 17.6° 994.2 hPa 1.6 m/s 0.0 mm 16.0° 993.2 hPa 2.2 m/s 0.0 mm 15.3° 994.8 hPa 2.5 m/s
 04:35     21:16    Daglengte: 16:41 Zaterdag 31 Jul
02:00 16.2° 995.3 hPa 2.3 m/s 0.0 mm 17.1° 994.6 hPa 4.2 m/s 17.7 mm 16.0° 995.6 hPa 0.8 m/s 0.0 mm 15.4° 994.3 hPa 1.8 m/s 0.0 mm 14.6° 996.1 hPa 3.0 m/s
05:00 16.3° 996.1 hPa 2.6 m/s 0.0 mm 16.5° 994.7 hPa 2.6 m/s 17.7 mm 15.3° 996.8 hPa 1.1 m/s 0.0 mm 14.7° 997.7 hPa 3.3 m/s
08:00 17.0° 996.8 hPa 2.3 m/s 0.0 mm 16.9° 995.4 hPa 2.0 m/s 17.7 mm 17.6° 997.7 hPa 1.7 m/s 0.0 mm 16.9° 998.4 hPa 3.9 m/s
11:00 19.3° 997.5 hPa 3.0 m/s 0.0 mm 19.5° 996.4 hPa 3.1 m/s 17.7 mm 20.4° 998.1 hPa 2.4 m/s 0.0 mm 18.0° 999.5 hPa 3.9 m/s
14:00 20.2° 997.2 hPa 3.4 m/s 5.7 mm 21.1° 996.2 hPa 4.2 m/s 18.0 mm 18.8° 998.4 hPa 3.2 m/s 2.6 mm 20.6° 999.2 hPa 3.1 m/s
17:00 20.9° 996.4 hPa 4.7 m/s 5.2 mm 22.0° 996.0 hPa 4.5 m/s 18.2 mm 21.0° 997.3 hPa 3.5 m/s 1.0 mm 21.1° 997.9 hPa 3.8 m/s
20:00 18.5° 995.9 hPa 3.2 m/s 3.2 mm 18.6° 994.7 hPa 5.2 m/s 20.2 mm 19.0° 996.1 hPa 2.9 m/s 1.0 mm 17.1° 996.4 hPa 3.7 m/s
23:00 16.9° 995.1 hPa 2.4 m/s 5.2 mm 16.5° 994.3 hPa 3.9 m/s 21.1 mm 16.9° 995.0 hPa 2.2 m/s 0.6 mm 14.8° 995.5 hPa 1.4 m/s
 04:37     21:14    Daglengte: 16:37 Zondag 01 Aug
02:00 16.1° 994.5 hPa 2.4 m/s 3.0 mm 15.6° 993.3 hPa 2.2 m/s 25.0 mm 16.1° 994.3 hPa 2.3 m/s 0.4 mm 14.3° 994.6 hPa 3.1 m/s
05:00 15.8° 994.1 hPa 3.0 m/s 6.3 mm 15.0° 992.8 hPa 3.5 m/s 25.0 mm 16.0° 994.5 hPa 2.9 m/s 1.1 mm 14.7° 994.7 hPa 3.4 m/s
08:00 16.6° 995.1 hPa 3.7 m/s 10.2 mm 16.4° 992.7 hPa 4.8 m/s 26.3 mm 16.6° 995.6 hPa 3.5 m/s 2.2 mm 15.0° 995.3 hPa 4.6 m/s
11:00 18.2° 994.7 hPa 3.0 m/s 29.4 mm 18.2° 994.7 hPa 3.0 m/s 29.4 mm 15.4° 997.5 hPa 4.4 m/s
14:00 20.8° 995.5 hPa 2.9 m/s 30.0 mm 20.8° 995.5 hPa 2.9 m/s 30.0 mm 17.3° 999.3 hPa 3.4 m/s
17:00 19.0° 1000.7 hPa 3.6 m/s 15.6 mm 19.0° 1000.7 hPa 3.6 m/s 15.6 mm
20:00 16.8° 1001.7 hPa 2.3 m/s 15.6 mm 16.8° 1001.7 hPa 2.3 m/s 15.6 mm
23:00 12.1° 1003.7 hPa 2.5 m/s 15.6 mm 12.1° 1003.7 hPa 2.5 m/s 15.6 mm
 04:39     21:11    Daglengte: 16:32 Maandag 02 Aug
02:00 11.5° 1004.8 hPa 1.4 m/s 15.6 mm 11.5° 1004.8 hPa 1.4 m/s 15.6 mm
05:00 10.0° 1005.7 hPa 2.0 m/s 15.6 mm 10.0° 1005.7 hPa 2.0 m/s 15.6 mm
08:00 14.4° 1006.4 hPa 2.4 m/s 15.6 mm 14.4° 1006.4 hPa 2.4 m/s 15.6 mm
11:00 17.9° 1006.9 hPa 2.8 m/s 15.6 mm 17.9° 1006.9 hPa 2.8 m/s 15.6 mm
14:00 19.7° 1007.1 hPa 2.8 m/s 15.6 mm 19.7° 1007.1 hPa 2.8 m/s 15.6 mm
17:00 20.0° 1007.4 hPa 1.9 m/s 15.6 mm 20.0° 1007.4 hPa 1.9 m/s 15.6 mm
20:00 16.3° 1008.0 hPa 2.5 m/s 15.6 mm 16.3° 1008.0 hPa 2.5 m/s 15.6 mm
23:00 14.6° 1008.9 hPa 2.2 m/s 15.6 mm 14.6° 1008.9 hPa 2.2 m/s 15.6 mm
 04:41     21:09    Daglengte: 16:28 Dinsdag 03 Aug
02:00 13.0° 1009.4 hPa 1.1 m/s 16.2 mm 13.0° 1009.4 hPa 1.1 m/s 16.2 mm
05:00 12.7° 1009.9 hPa 1.3 m/s 16.8 mm 12.7° 1009.9 hPa 1.3 m/s 16.8 mm
08:00 14.6° 1010.4 hPa 1.2 m/s 16.8 mm 14.6° 1010.4 hPa 1.2 m/s 16.8 mm
11:00 18.1° 1010.8 hPa 1.0 m/s 17.2 mm 18.1° 1010.8 hPa 1.0 m/s 17.2 mm
14:00 19.3° 1010.6 hPa 0.7 m/s 18.7 mm 19.3° 1010.6 hPa 0.7 m/s 18.7 mm
17:00 18.8° 1010.3 hPa 1.5 m/s 20.9 mm 18.8° 1010.3 hPa 1.5 m/s 20.9 mm
20:00 16.1° 1010.5 hPa 2.0 m/s 22.6 mm 16.1° 1010.5 hPa 2.0 m/s 22.6 mm
23:00 14.3° 1011.0 hPa 1.7 m/s 24.0 mm 14.3° 1011.0 hPa 1.7 m/s 24.0 mm
 04:44     21:06    Daglengte: 16:22 Woensdag 04 Aug
02:00 13.6° 1010.7 hPa 2.1 m/s 24.0 mm 13.6° 1010.7 hPa 2.1 m/s 24.0 mm
05:00 13.5° 1010.4 hPa 1.7 m/s 24.5 mm 13.5° 1010.4 hPa 1.7 m/s 24.5 mm
08:00 16.5° 1010.9 hPa 2.2 m/s 24.5 mm 16.5° 1010.9 hPa 2.2 m/s 24.5 mm
11:00 21.0° 1011.1 hPa 2.5 m/s 24.5 mm 21.0° 1011.1 hPa 2.5 m/s 24.5 mm
14:00 22.0° 1011.2 hPa 1.4 m/s 24.7 mm 22.0° 1011.2 hPa 1.4 m/s 24.7 mm
17:00 19.1° 1012.0 hPa 0.7 m/s 25.5 mm 19.1° 1012.0 hPa 0.7 m/s 25.5 mm
20:00 17.8° 1012.5 hPa 1.1 m/s 25.7 mm 17.8° 1012.5 hPa 1.1 m/s 25.7 mm
23:00 14.5° 1013.4 hPa 0.9 m/s 25.7 mm 14.5° 1013.4 hPa 0.9 m/s 25.7 mm
 04:46     21:04    Daglengte: 16:18 Donderdag 05 Aug
02:00 14.1° 1013.6 hPa 1.2 m/s 25.7 mm 14.1° 1013.6 hPa 1.2 m/s 25.7 mm
05:00 13.7° 1013.8 hPa 1.2 m/s 25.7 mm 13.7° 1013.8 hPa 1.2 m/s 25.7 mm
08:00 17.8° 1014.0 hPa 1.3 m/s 25.7 mm 17.8° 1014.0 hPa 1.3 m/s 25.7 mm
11:00 21.2° 1014.1 hPa 2.3 m/s 25.7 mm 21.2° 1014.1 hPa 2.3 m/s 25.7 mm
14:00 22.1° 1013.4 hPa 1.5 m/s 25.8 mm 22.1° 1013.4 hPa 1.5 m/s 25.8 mm
20:00 18.7° 1013.3 hPa 1.3 m/s 25.9 mm 18.7° 1013.3 hPa 1.3 m/s 25.9 mm
 04:48     21:01    Daglengte: 16:13 Vrijdag 06 Aug
02:00 15.0° 1014.1 hPa 1.5 m/s 26.0 mm 15.0° 1014.1 hPa 1.5 m/s 26.0 mm
08:00 17.8° 1014.2 hPa 1.6 m/s 26.0 mm 17.8° 1014.2 hPa 1.6 m/s 26.0 mm
14:00 22.2° 1014.0 hPa 1.4 m/s 26.0 mm 22.2° 1014.0 hPa 1.4 m/s 26.0 mm
20:00 18.8° 1014.1 hPa 2.0 m/s 26.0 mm 18.8° 1014.1 hPa 2.0 m/s 26.0 mm
 04:50     20:59    Daglengte: 16:09 Zaterdag 07 Aug
02:00 17.3° 1015.0 hPa 0.9 m/s 26.0 mm 17.3° 1015.0 hPa 0.9 m/s 26.0 mm
08:00 18.1° 1015.4 hPa 0.3 m/s 26.0 mm 18.1° 1015.4 hPa 0.3 m/s 26.0 mm
14:00 23.8° 1015.5 hPa 1.0 m/s 26.0 mm 23.8° 1015.5 hPa 1.0 m/s 26.0 mm
20:00 19.1° 1015.5 hPa 2.1 m/s 26.0 mm 19.1° 1015.5 hPa 2.1 m/s 26.0 mm
 04:53     20:56    Daglengte: 16:03 Zondag 08 Aug
02:00 15.1° 1015.7 hPa 1.0 m/s 26.0 mm 15.1° 1015.7 hPa 1.0 m/s 26.0 mm
08:00 16.8° 1007.9 hPa 0.3 m/s 0.7 mm
14:00 20.5° 1008.4 hPa 1.5 m/s 1.5 mm
20:00 18.0° 1008.9 hPa 1.4 m/s 1.5 mm
 04:55     20:53    Daglengte: 15:58 Maandag 09 Aug
02:00 15.5° 1009.7 hPa 1.3 m/s 1.5 mm
08:00 17.0° 1009.7 hPa 1.1 m/s 1.4 mm
14:00 21.5° 1010.1 hPa 1.7 m/s 0.7 mm
20:00 18.7° 1010.2 hPa 1.5 m/s 1.0 mm
 04:57     20:51    Daglengte: 15:54 Dinsdag 10 Aug
02:00 15.4° 1011.2 hPa 1.5 m/s 0.6 mm
08:00 16.9° 1011.5 hPa 1.8 m/s 0.7 mm
14:00 21.2° 1011.9 hPa 1.5 m/s 0.5 mm
20:00 18.6° 1011.6 hPa 1.4 m/s 0.8 mm
 05:00     20:48    Daglengte: 15:48 Woensdag 11 Aug
02:00 15.4° 1012.3 hPa 1.2 m/s 0.3 mm
08:00 16.7° 1012.6 hPa 1.4 m/s 0.6 mm
14:00 21.8° 1013.0 hPa 1.3 m/s 1.2 mm
20:00 18.8° 1012.6 hPa 1.0 m/s 0.4 mm
 05:02     20:45    Daglengte: 15:43 Donderdag 12 Aug
02:00 15.2° 1013.3 hPa 1.6 m/s 0.5 mm
08:00 16.6° 1013.4 hPa 1.0 m/s 0.3 mm
14:00 21.6° 1013.3 hPa 1.5 m/s 0.6 mm
20:00 18.5° 1012.9 hPa 1.3 m/s 0.6 mm
 05:04     20:43    Daglengte: 15:39 Vrijdag 13 Aug
02:00 15.3° 1013.1 hPa 1.2 m/s 0.2 mm
08:00 17.3° 1013.1 hPa 1.0 m/s 0.1 mm
FMI Hirlam - 7.5 km EWN WRFDA - 12 km DWD ICON - 7 km GFS - 25 km Basiskaart






























































Updatetijd (Europe/Amsterdam) Resolutie Lengte Stap
FMI Hirlam 07:00, 13:00, 19:00, 01:00 7.5 km 49h 1h
EWN WRFDA 10:15, 16:15, 22:15, 04:15 12 km 73h 1h
DWD ICON 06:15, 12:15, 18:15, 00:15 7 km 75h 1h
GFS 08:15, 14:15, 20:15, 02:15 25 km 237h 3h
30+ mm
25-30 mm
20-25 mm
15-20 mm
10-15 mm
6-10 mm
4-6 mm
2-4 mm
1-2 mm
0.5-1 mm
0.2-0.5 mm
0.1-0.2 mm
30+ mm
25-30 mm
20-25 mm
15-20 mm
10-15 mm
6-10 mm
4-6 mm
2-4 mm
1-2 mm
0.5-1 mm
0.2-0.5 mm
0.1-0.2 mm
Sneeuwval
Natte sneeuw
Hagel
Vorst
30+ mm
25-30 mm
20-25 mm
15-20 mm
10-15 mm
6-10 mm
4-6 mm
2-4 mm
1-2 mm
0.5-1 mm
0.2-0.5 mm
0.1-0.2 mm
Sneeuwval
Natte sneeuw
Hagel
Vorst
Onweer
50 mm
40 mm
30 mm
26 mm
22 mm
18 mm
14 mm
10 mm
9 mm
8 mm
7 mm
6 mm
5 mm
4.5 mm
4 mm
3.5 mm
3 mm
2.5 mm
2 mm
1.5 mm
1 mm
0.8 mm
0.6 mm
0.4 mm
0.2 mm
0.05 mm
35°
30°
25°
20°
15°
10°